Lexington Weather

Lexington, Massachusetts, USA

70°F
8/17/2022 6:40pm 
  • Lexington Conditions: Overcast
  • Temperature: 69.8°F / 21.0°CColder 0.2°F than last hour.
  • Dew Point: 58.3°FDecreased 0.2°Fsince last hour.
  • Relative Humidity: 67
  • Wind: Calm, 10-min avg: Calm, gust: 3 mph
  • Barometer: 29.85 in Steady
  • Visibility: 10 miles
  • Rain Today: 0.00 in
  •   

Regional Weather Roundup
for Boston, MA

        
000
ASUS41 KBOX 171910
RWRBOX

REGIONAL WEATHER ROUNDUP
NATIONAL WEATHER SERVICE BOSTON/NORTON MA
300 PM EDT WED AUG 17 2022

NOTE:  "FAIR" INDICATES FEW OR NO CLOUDS BELOW 12,000 FEET WITH NO 
SIGNIFICANT WEATHER AND/OR OBSTRUCTIONS TO VISIBILITY.

MAZALL-172000-
EASTERN MASSACHUSETTS
  
CITY           SKY/WX    TMP DP  RH WIND       PRES   REMARKS
BOSTON         CLOUDY    72  53  51 N15       29.94F                  
BEVERLY        CLOUDY    71  53  52 N16G29    29.94F                  
LAWRENCE       CLOUDY    70  54  56 N13G23    29.98F                  
BEDFORD        CLOUDY    74  54  49 NE12G18   29.95F                  
BLUE HILL      NOT AVBL                                               
NORWOOD        CLOUDY    74  55  51 N10G17    29.94F                  
MARSHFIELD     PTSUNNY   72  54  53 N9G24     29.92F                  
PLYMOUTH       CLOUDY    70  56  61 NW15G22   29.93F                  
TAUNTON          N/A    N/A N/A N/A MISG      29.93F                  
NEW BEDFORD    CLOUDY    74  54  49 N8        29.92F                  
$$

MAZALL-172000-
CAPE COD AND THE ISLANDS
  
CITY           SKY/WX    TMP DP  RH WIND       PRES   REMARKS
FALMOUTH       SUNNY     73  52  46 N14G23    29.91F                  
HYANNIS        CLOUDY    71  57  61 N14G26    29.89F                  
CHATHAM        CLOUDY    69  57  65 NW9G18    29.90F                  
PROVINCETOWN   CLOUDY    67  61  81 NW13G21   29.91F                  
NANTUCKET      MOSUNNY   75  61  61 N20G29    29.89F                  
MARTHAS VNYRD  SUNNY     77  55  46 N20G26    29.90F                  
$$
 
MAZALL-172000-
CENTRAL AND WESTERN MASSACHUSETTS
  
CITY           SKY/WX    TMP DP  RH WIND       PRES   REMARKS
WORCESTER      CLOUDY    69  59  70 N8        29.99F                  
FITCHBURG      CLOUDY    73  51  46 NE8       29.98S                  
ORANGE         CLOUDY    70  60  70 NW5       29.99S                  
SPRINGFIELD    LGT RAIN  67  62  84 NE9       29.96R                  
WESTFIELD      LGT RAIN  75  57  53 NE6       29.96F                  
NORTH ADAMS    CLOUDY    71  62  73 CALM      29.99F                  
PITTSFIELD     LGT RAIN  67  56  67 SW9       30.00S                  
$$
 
RIZALL-172000-
RHODE ISLAND
  
CITY           SKY/WX    TMP DP  RH WIND       PRES   REMARKS
PROVIDENCE     PTSUNNY   76  55  48 NE15      29.94F                  
NEWPORT        PTSUNNY   75  56  51 NE14G22   29.93F                  
BLOCK ISLAND   CLOUDY    71  62  73 W8        29.95F                  
SMITHFIELD     PTSUNNY   73  57  57 NE8       29.96F                  
WESTERLY       LGT RAIN  69  63  81 NE3       29.95S                  
$$
 
CTZALL-172000-
CONNECTICUT
  
CITY           SKY/WX    TMP DP  RH WIND       PRES   REMARKS
BRADLEY INTL   CLOUDY    78  56  46 N12       29.95F                  
HARTFORD       CLOUDY    78  56  46 NW8       29.94F                  
BRIDGEPORT     CLOUDY    75  60  59 S8        29.95F                  
DANBURY        PTSUNNY   80  54  40 N7        29.97F                  
GROTON         PTSUNNY   75  63  66 SW10      29.92F                  
NEW HAVEN      PTSUNNY   80  61  52 SW8       29.94F                  
CHESTER        LGT RAIN  77  61  57 NW10      29.95F                  
MERIDEN        PTSUNNY   78  55  44 W7        29.94F                  
WILLIMANTIC    CLOUDY    73  56  54 NW12      29.95F                  
OXFORD         MOSUNNY   77  53  43 NE9       29.98F                  
$$

MEZ002-015-021-024-NHZ003-005-008-011-012-014-VTZ005-008-172000-
NORTHERN NEW ENGLAND
  
CITY           SKY/WX    TMP DP  RH WIND       PRES   REMARKS
PORTLAND ME    LGT RAIN  63  60  90 N15       29.94F                  
BANGOR ME      LGT RAIN  64  62  93 N22G28    29.88F FOG              
CONCORD NH     LGT RAIN  68  56  65 E6        29.98F                  
MANCHESTER NH  CLOUDY    71  54  54 N10G20    29.97F                  
NASHUA NH      CLOUDY    71  55  56 N8        29.99S                  
PORTSMOUTH NH  LGT RAIN  65  56  70 NW15      29.95F                  
JAFFREY NH     CLOUDY    72  52  49 VRB3      30.01R                  
KEENE NH       CLOUDY    69  61  75 NW6         N/A                   
BURLINGTON VT  PTSUNNY   80  62  54 N12       29.99F                  
MT. WASHINGTON LGT RAIN  45  45 100 NE22G32     N/A  VSB 0            
$$

NYZ052-076-172000-
EASTERN NEW YORK
  
CITY           SKY/WX    TMP DP  RH WIND       PRES   REMARKS
ALBANY         CLOUDY    77  59  53 CALM      29.98F                  
NEW YORK CITY  PTSUNNY   77  52  41 NW6       29.96F                  
$$
 
ANZALL-172000-
MARINE OBSERVATIONS
  
STATION/POSITION TIME  TEMP    WIND        PRES    VSBY  WAVE
                       AIR SEA DIR/SP/G                  HT/PER
                 (UTC) (F)     (DEG/KT/KT) (MB)    (MI)  (FT/S)
BOSTON BUOY      NOT AVBL
BUZZARDS BAY     NOT AVBL
NANTUCKET SOUND  NOT AVBL
MASS BAY-STELLWA NOT AVBL
ISLE OF SHOALS   NOT AVBL
S OF BLOCK IS    NOT AVBL
$$

......................KEY.........................
  SKY/WX - SKY CONDITION/PRESENT WEATHER
  TMP    - TEMPERATURE IN FAHRENHEIT
  DWPT   - DEWPOINT IN FAHRENHEIT
  RH     - RELATIVE HUMIDITY IN PERCENT
  WIND   - DIRECTION AND SPEED IN MPH
  PRES   - MEAN SEA LEVEL PRESSURE IN INCHES OF HG
  WCI    - WIND CHILL INDEX
  VSB    - VISIBILITY IN MILES
  HX     - HEAT INDEX
  TC     - TEMPERATURE IN CELSIUS
  VRB    - VARIABLE WIND DIRECTION
  N/A    - NOT AVAILABLE
  
      

Other recent Regional Weather Roundups

Wed Aug 17, 6:10pm

Wed Aug 17, 5:10pm

Wed Aug 17, 4:10pm

Wed Aug 17, 2:10pm

Wed Aug 17, 1:10pm

Wed Aug 17, 12:10pm

Wed Aug 17, 11:10am

Wed Aug 17, 10:10am

Wed Aug 17, 9:10am

Wed Aug 17, 8:10am

Wed Aug 17, 7:10am

Wed Aug 17, 6:10am

Wed Aug 17, 5:10am

Wed Aug 17, 4:10am

Wed Aug 17, 3:10am

Wed Aug 17, 2:10am

Wed Aug 17, 1:10am

Wed Aug 17, 12:10am

Tue Aug 16, 11:10pm

Tue Aug 16, 10:10pm

Tue Aug 16, 9:10pm

Tue Aug 16, 8:10pm

Tue Aug 16, 7:10pm

Tue Aug 16, 6:10pm

Tue Aug 16, 5:10pm

Tue Aug 16, 4:10pm

Tue Aug 16, 3:10pm

Tue Aug 16, 2:10pm

Tue Aug 16, 1:10pm

Tue Aug 16, 12:10pm

Tue Aug 16, 11:10am

Tue Aug 16, 10:10am

Tue Aug 16, 9:10am

Tue Aug 16, 8:10am

Tue Aug 16, 7:10am

Tue Aug 16, 6:10am

Tue Aug 16, 5:10am

Tue Aug 16, 4:10am

Tue Aug 16, 3:10am

Tue Aug 16, 2:10am

Tue Aug 16, 1:10am

Tue Aug 16, 12:10am

Mon Aug 15, 11:10pm

Mon Aug 15, 10:10pm

Mon Aug 15, 9:10pm

Mon Aug 15, 8:10pm

Mon Aug 15, 7:10pm

Mon Aug 15, 6:10pm

Mon Aug 15, 5:10pm

Mon Aug 15, 4:10pm

Mon Aug 15, 3:10pm

Mon Aug 15, 2:10pm

Mon Aug 15, 1:10pm

Mon Aug 15, 12:10pm

Mon Aug 15, 11:10am

Mon Aug 15, 10:10am

Mon Aug 15, 9:10am

Mon Aug 15, 8:10am

Mon Aug 15, 7:10am

Mon Aug 15, 6:10am

Mon Aug 15, 5:10am

Mon Aug 15, 4:10am

Mon Aug 15, 3:10am

Mon Aug 15, 2:10am

Mon Aug 15, 1:10am

Mon Aug 15, 12:10am

Sun Aug 14, 11:10pm

Sun Aug 14, 10:10pm

Sun Aug 14, 9:10pm

Sun Aug 14, 8:10pm

Sun Aug 14, 7:10pm

Sun Aug 14, 6:10pm

Sun Aug 14, 5:10pm

Sun Aug 14, 4:10pm

Sun Aug 14, 3:10pm

Sun Aug 14, 2:10pm

Sun Aug 14, 1:10pm

Sun Aug 14, 12:10pm

Sun Aug 14, 11:10am

Sun Aug 14, 10:10am

Sun Aug 14, 9:10am

Sun Aug 14, 8:10am

Sun Aug 14, 7:10am

Sun Aug 14, 6:10am

Sun Aug 14, 5:10am

Sun Aug 14, 4:10am

Sun Aug 14, 3:10am

Sun Aug 14, 2:10am

Sun Aug 14, 1:10am

Sun Aug 14, 12:10am

Sat Aug 13, 11:10pm

Sat Aug 13, 10:10pm

Sat Aug 13, 9:10pm

Sat Aug 13, 8:10pm

Sat Aug 13, 7:10pm

Sat Aug 13, 6:10pm

Sat Aug 13, 5:10pm

Sat Aug 13, 4:10pm

Sat Aug 13, 3:10pm

Sat Aug 13, 2:10pm

Sat Aug 13, 1:10pm

Sat Aug 13, 12:10pm

Sat Aug 13, 11:10am

Sat Aug 13, 10:10am

Sat Aug 13, 9:10am

Sat Aug 13, 8:10am

Sat Aug 13, 7:10am

Sat Aug 13, 6:10am

Sat Aug 13, 5:10am

Sat Aug 13, 4:10am

Sat Aug 13, 3:10am

Sat Aug 13, 2:10am

Sat Aug 13, 1:10am

Sat Aug 13, 12:10am

Fri Aug 12, 11:10pm

Fri Aug 12, 10:10pm

Fri Aug 12, 9:10pm

Fri Aug 12, 8:10pm

Fri Aug 12, 7:10pm

Fri Aug 12, 6:10pm

Fri Aug 12, 5:10pm

Fri Aug 12, 4:10pm

Fri Aug 12, 3:10pm

Fri Aug 12, 2:10pm

Fri Aug 12, 1:10pm

Fri Aug 12, 12:10pm

Fri Aug 12, 11:10am

Fri Aug 12, 10:10am

Fri Aug 12, 9:10am

Fri Aug 12, 8:10am

Fri Aug 12, 7:10am

Fri Aug 12, 6:10am

Fri Aug 12, 5:10am

Fri Aug 12, 4:10am

Fri Aug 12, 3:10am

Fri Aug 12, 2:10am

Fri Aug 12, 1:10am

Fri Aug 12, 12:10am

Thu Aug 11, 11:10pm

Thu Aug 11, 10:10pm

Thu Aug 11, 9:10pm

Thu Aug 11, 8:10pm

Thu Aug 11, 7:10pm

Thu Aug 11, 6:10pm

Thu Aug 11, 5:10pm

Thu Aug 11, 4:10pm

Thu Aug 11, 3:10pm

Thu Aug 11, 2:10pm

Thu Aug 11, 1:10pm

Thu Aug 11, 12:10pm

Thu Aug 11, 11:10am

Thu Aug 11, 10:10am

Thu Aug 11, 9:10am

Thu Aug 11, 8:10am

Thu Aug 11, 7:10am

Thu Aug 11, 6:10am

Thu Aug 11, 5:10am

Thu Aug 11, 4:10am

Thu Aug 11, 3:10am

Thu Aug 11, 2:10am

Thu Aug 11, 1:10am

Thu Aug 11, 12:10am

Wed Aug 10, 11:10pm

Wed Aug 10, 10:10pm

Wed Aug 10, 9:10pm

Wed Aug 10, 8:10pm

Wed Aug 10, 7:10pm

Meta data:

ID: 0f549563-dab7-4caf-8be9-7893fa07476a
Link: https://api.weather.gov/products/0f549563-dab7-4caf-8be9-7893fa07476a